Location: Newark
(5.5500°N, 0.2500°W)
Time: 14:51:30
(UTC+00:00)

Hubble Space Telescope - Visible Passes

Search period start: 20 September 2019 00:00
Search period end: 30 September 2019 00:00
Orbit: 536 x 540 km, 28.5° (Epoch: 19 September)

Date Brightness Start Highest point End Pass type
(mag) Time Alt. Az. Time Alt. Az. Time Alt. Az.
21 Sep 3.3 19:44:19 10° SSW 19:45:01 14° SSW 19:45:01 14° SSW visible
22 Sep 2.4 19:33:27 10° SW 19:35:34 25° SSW 19:35:34 25° SSW visible
23 Sep 1.2 19:22:42 10° SW 19:26:07 50° S 19:26:07 50° S visible
24 Sep 0.6 19:12:04 10° WSW 19:16:12 82° SSE 19:16:42 67° E visible
25 Sep 3.6 03:47:34 12° NE 03:47:34 12° NE 03:48:44 10° NE visible
25 Sep 1.1 05:24:07 10° NW 05:28:11 64° NNE 05:32:16 10° ESE visible
25 Sep 0.9 19:01:32 10° WSW 19:05:38 69° NNW 19:07:15 35° NE visible
26 Sep 3.7 03:38:07 13° NE 03:38:07 13° NE 03:39:03 10° ENE visible
26 Sep 0.7 05:13:32 10° WNW 05:17:38 88° SSW 05:21:46 10° ESE visible
26 Sep 1.5 18:51:07 10° WSW 18:55:06 48° NNW 18:57:46 19° NE visible
27 Sep 3.9 03:28:41 12° ENE 03:28:41 12° ENE 03:29:07 10° ENE visible
27 Sep 0.8 05:04:03 17° WNW 05:07:05 60° SSW 05:11:09 10° SE visible
27 Sep 2.1 18:40:48 10° W 18:44:34 34° NNW 18:48:14 11° NE visible
28 Sep 1.3 04:54:37 25° W 04:56:31 41° SSW 05:00:25 10° SE visible
28 Sep 2.6 18:30:36 10° W 18:34:03 25° NNW 18:37:30 10° NNE visible
29 Sep 1.8 04:45:10 27° SW 04:45:58 29° SSW 04:49:35 10° SSE visible
29 Sep 3.0 18:20:33 10° WNW 18:23:33 19° NNW 18:26:33 10° NNE visible
